[[{"header":{"parameterUnit":"m.s-1","parameterCategory":1,"la1":30.2991,"la2":30.254,"lo1":-89.0895,"lo2":-89.0444,"dy":0.0017,"dx":0.0017,"nx":28,"ny":28,"refTime":"2026-01-11T03:00:00:Z","depth":0,"parameterNumber":2,"parameterNumberName":"U-component_of_WINDS"},"data":[0,0,0,0,0,0,0,0,0,0,0,0,0,0,0,0,0,0,0,0,0,0,0,0,0,0,0,0,0,0,0,0,0,0,0,0,0,0,0,0,0,0,0,0,0,0,0,0,0,0,0,0,0,0,0,0,0,0,-0.1882,-0.1882,0,-0.1921,-0.1922,-0.1922,-0.1923,-0.1922,-0.1922,-0.1921,-0.1962,-0.1964,-0.1965,0,0,0,0,0,0,0,0,0,0,0,0,0,-0.1807,-0.1809,-0.1882,-0.1882,-0.1883,-0.1921,-0.1922,-0.1922,-0.1923,-0.1922,-0.1922,-0.1921,-0.1962,-0.1964,-0.1966,0,0,0,0,0,0,0,0,0,0,0,0,0,-0.1842,-0.1809,-0.1882,-0.1888,-0.1889,-0.1921,-0.1922,-0.1922,-0.1923,-0.1922,-0.1921,-0.1921,-0.1961,-0.1964,-0.1966,-0.1995,0,0,-0.1973,-0.1974,0,0,0,0,0,0,0,0,-0.184,-0.1845,-0.1886,-0.1887,-0.1888,-0.1916,-0.191,-0.1947,-0.1923,-0.191,-0.1921,-0.192,-0.1948,-0.1951,-0.196,-0.1997,-0.1999,-0.1973,-0.1975,-0.1976,-0.1976,0,0,0,0,0,0,0,-0.1838,-0.1843,-0.1898,-0.1887,-0.1888,-0.1888,-0.1893,-0.1917,-0.1933,-0.1911,-0.1911,-0.1916,-0.1948,-0.1958,-0.1961,-0.2,-0.1973,-0.1975,-0.1977,-0.1978,-0.2062,-0.2062,0,0,0,0,0,0,-0.1834,-0.1841,-0.1896,-0.1899,-0.1862,-0.189,-0.1895,-0.1908,-0.1932,-0.1935,-0.1916,-0.1916,-0.1954,-0.1958,-0.1963,-0.1998,-0.1976,-0.1978,-0.1979,-0.2061,-0.2062,-0.2063,0,0,0,0,0,0,-0.1833,-0.1839,-0.1895,-0.187,-0.1877,-0.1892,-0.1907,-0.1909,-0.1919,-0.1936,-0.1939,-0.1924,-0.1954,-0.1959,-0.1987,-0.1999,-0.1979,-0.1981,-0.206,-0.2061,-0.2062,-0.207,0,0,0,0,0,0,-0.1831,-0.1839,-0.185,-0.187,-0.1878,-0.1918,-0.1908,-0.1911,-0.1923,-0.1922,-0.1944,-0.1947,-0.1954,-0.1983,-0.1989,-0.2002,-0.1983,-0.2059,-0.206,-0.2062,-0.2068,-0.2071,-0.2073,0,0,0,0,0,-0.1828,-0.1851,-0.1851,-0.1857,-0.1893,-0.1919,-0.1924,-0.1931,-0.1924,-0.1936,-0.1946,-0.1946,-0.1997,-0.1986,-0.1993,-0.2007,-0.2058,-0.206,-0.2062,-0.2067,-0.207,-0.2073,0,0,0,0,0,0,-0.1832,-0.1854,-0.1854,-0.1884,-0.19,-0.1919,-0.1934,-0.1934,-0.1953,-0.1952,-0.196,-0.1965,-0.1992,-0.2002,-0.199,-0.2036,-0.2027,-0.203,-0.2029,-0.2032,-0.2034,-0.2031,-0.1985,0,0,0,0,0,-0.1837,-0.1856,-0.1874,-0.1899,-0.1906,-0.1919,-0.193,-0.1935,-0.1951,-0.1958,-0.1971,-0.1987,-0.2007,-0.202,-0.2039,-0.207,-0.2074,-0.2082,-0.2085,-0.2087,-0.209,-0.2106,-0.2109,-0.2069,-0.2069,-0.2069,0,0,-0.1846,-0.186,-0.1872,-0.19,-0.1912,-0.1932,-0.1924,-0.1946,-0.196,-0.1961,-0.1988,-0.1998,-0.2017,-0.2046,-0.2059,-0.2055,-0.2102,-0.2089,-0.2091,-0.2092,-0.2108,-0.2112,-0.2115,-0.207,-0.207,-0.207,0,0,-0.1873,-0.1886,-0.1908,-0.1921,-0.1939,-0.1947,-0.1953,-0.1972,-0.1978,-0.2005,-0.2006,-0.2023,-0.2057,-0.207,-0.2081,-0.2112,-0.2112,-0.2118,-0.2131,-0.2147,-0.215,-0.2153,-0.2163,-0.2167,-0.2121,-0.2121,-0.2121,0,-0.1883,-0.1912,-0.1919,-0.194,-0.1952,-0.1953,-0.1975,-0.1987,-0.2012,-0.202,-0.2015,-0.2057,-0.2069,-0.2101,-0.2108,-0.2117,-0.2123,-0.2116,-0.2149,-0.2152,-0.2155,-0.2165,-0.2169,-0.2122,-0.2122,-0.2121,-0.2121,0,-0.1923,-0.1943,-0.1959,-0.1981,-0.1995,-0.2017,-0.2026,-0.2039,-0.2042,-0.205,-0.2077,-0.2092,-0.2114,-0.2122,-0.2125,-0.2154,-0.215,-0.2147,-0.2138,-0.2159,-0.2169,-0.2173,-0.2122,-0.2122,-0.2122,-0.2122,0,0,-0.1955,-0.198,-0.1986,-0.1996,-0.2016,-0.2032,-0.2053,-0.2074,-0.2085,-0.2101,-0.2119,-0.2147,-0.2144,-0.2156,-0.2161,-0.2174,-0.2197,-0.2169,-0.217,-0.2174,-0.2229,-0.2231,-0.2236,-0.2197,-0.2198,-0.2199,-0.2227,0,-0.1984,-0.2022,-0.2028,-0.2061,-0.2079,-0.208,-0.2098,-0.2113,-0.2121,-0.2138,-0.2147,-0.2166,-0.216,-0.2168,-0.2181,-0.2192,-0.2208,-0.219,-0.2214,-0.2214,-0.2209,-0.2241,-0.2244,-0.227,-0.2231,-0.2232,-0.2232,0,-0.2023,-0.204,-0.2075,-0.2092,-0.21,-0.2116,-0.2135,-0.2151,-0.2167,-0.2172,-0.2186,-0.2188,-0.221,-0.2199,-0.2229,-0.2216,-0.2226,-0.2233,-0.2234,-0.2237,-0.2225,-0.2244,-0.2279,-0.2283,-0.2238,-0.2238,-0.2237,0,-0.2043,-0.2074,-0.2098,-0.2107,-0.2128,-0.2139,-0.2148,-0.2163,-0.2175,-0.2192,-0.2199,-0.2219,-0.2229,-0.2244,-0.2251,-0.2243,-0.228,-0.2271,-0.2285,-0.2285,-0.2293,-0.2292,-0.2329,-0.2299,-0.2299,-0.2299,-0.2299,0,-0.2075,-0.2096,-0.2107,-0.2122,-0.2145,-0.2152,-0.2175,-0.2184,-0.2197,-0.2214,-0.2216,-0.2232,-0.2241,-0.2257,-0.2263,-0.2287,-0.2292,-0.2296,-0.2297,-0.2296,-0.2295,-0.2303,-0.2301,-0.23,-0.23,-0.23,-0.23,0,-0.21,-0.2109,-0.2135,-0.2152,-0.2157,-0.2174,-0.2188,-0.2202,-0.221,-0.2231,-0.2236,-0.2248,-0.2268,-0.2277,-0.2302,-0.2305,-0.2332,-0.2332,-0.2326,-0.2327,-0.234,-0.2339,-0.2384,-0.239,-0.2356,-0.2356,-0.2356,0,-0.212,-0.2136,-0.2154,-0.2165,-0.2175,-0.2193,-0.2204,-0.2211,-0.2224,-0.2242,-0.2255,-0.2274,-0.229,-0.2322,-0.2333,-0.2351,-0.2352,-0.2366,-0.2355,-0.2352,-0.2351,-0.235,-0.2352,-0.2368,-0.2369,-0.2369,-0.2369,0,-0.2154,-0.2157,-0.2174,-0.2192,-0.2206,-0.2221,-0.2235,-0.2244,-0.2253,-0.2267,-0.2286,-0.2299,-0.2323,-0.2343,-0.2362,-0.2371,-0.2372,-0.2372,-0.2377,-0.2375,-0.2371,-0.2373,-0.2332,-0.2372,-0.2371,-0.2371,-0.2371,-0.2371,-0.2177,-0.2191,-0.2206,-0.2224,-0.2236,-0.2249,-0.2263,-0.2272,-0.2288,-0.2309,-0.2312,-0.2333,-0.2348,-0.2373,-0.2383,-0.24,-0.2396,-0.2402,-0.2404,-0.2405,-0.2406,-0.2368,-0.2403,-0.2403,-0.2403,-0.2403,-0.2403,0,-0.2211,-0.222,-0.2237,-0.2257,-0.2271,-0.227,-0.2285,-0.2297,-0.2316,-0.2329,-0.2345,-0.2367,-0.2386,-0.2398,-0.2416,-0.2427,-0.2428,-0.2432,-0.2431,-0.2433,-0.2408,-0.2402,-0.2431,-0.2431,-0.2431,-0.2431,-0.2431,-0.2431,-0.223,-0.2253,-0.2258,-0.2287,-0.2296,-0.2316,-0.2325,-0.2337,-0.2348,-0.2373,-0.2388,-0.2395,-0.2408,-0.2428,-0.2444,-0.2447,-0.2454,-0.2458,-0.2461,-0.2438,-0.2435,-0.2432,-0.2427,-0.246,-0.246,-0.2484,-0.2484,-0.2485]},{"header":{"parameterUnit":"m.s-1","parameterCategory":1,"la1":30.2991,"la2":30.254,"lo1":-89.0895,"lo2":-89.0444,"dy":0.0017,"dx":0.0017,"nx":28,"ny":28,"refTime":"2026-01-11T03:00:00:Z","depth":0,"parameterNumber":3,"parameterNumberName":"V-component_of_WINDS"},"data":[0,0,0,0,0,0,0,0,0,0,0,0,0,0,0,0,0,0,0,0,0,0,0,0,0,0,0,0,0,0,0,0,0,0,0,0,0,0,0,0,0,0,0,0,0,0,0,0,0,0,0,0,0,0,0,0,0,0,-3.4649,-3.465,0,-3.4738,-3.4739,-3.474,-3.4729,-3.4728,-3.4727,-3.4725,-3.4813,-3.4816,-3.482,0,0,0,0,0,0,0,0,0,0,0,0,0,-3.4466,-3.4469,-3.4649,-3.465,-3.4652,-3.4738,-3.4739,-3.4741,-3.473,-3.4728,-3.4726,-3.4725,-3.4811,-3.4816,-3.482,0,0,0,0,0,0,0,0,0,0,0,0,0,-3.4549,-3.447,-3.4649,-3.4657,-3.4658,-3.4738,-3.474,-3.4741,-3.473,-3.4728,-3.4726,-3.4724,-3.481,-3.4815,-3.4821,-3.4898,0,0,-3.4837,-3.484,0,0,0,0,0,0,0,0,-3.4544,-3.4556,-3.4654,-3.4656,-3.4658,-3.4721,-3.4707,-3.4793,-3.4731,-3.4703,-3.4725,-3.4723,-3.4783,-3.4791,-3.4812,-3.4902,-3.4905,-3.4838,-3.4841,-3.4844,-3.4845,0,0,0,0,0,0,0,-3.4539,-3.4552,-3.4684,-3.4656,-3.4658,-3.4654,-3.4664,-3.4723,-3.4754,-3.4705,-3.4704,-3.4715,-3.4784,-3.4807,-3.4814,-3.4907,-3.4838,-3.4843,-3.4846,-3.4848,-3.5062,-3.5065,0,0,0,0,0,0,-3.4532,-3.4547,-3.4682,-3.4687,-3.4595,-3.4659,-3.467,-3.4703,-3.4753,-3.4759,-3.4717,-3.4714,-3.4799,-3.4808,-3.4817,-3.491,-3.4844,-3.4849,-3.4852,-3.506,-3.5063,-3.5065,0,0,0,0,0,0,-3.4528,-3.4544,-3.4678,-3.4617,-3.4634,-3.4665,-3.4702,-3.4706,-3.4729,-3.4762,-3.4767,-3.4735,-3.4797,-3.481,-3.4878,-3.4913,-3.4851,-3.4856,-3.5057,-3.5061,-3.5064,-3.5096,0,0,0,0,0,0,-3.4523,-3.4542,-3.4573,-3.4618,-3.4637,-3.4738,-3.4704,-3.4709,-3.4739,-3.4736,-3.4781,-3.4786,-3.4797,-3.487,-3.4883,-3.4919,-3.486,-3.5054,-3.5059,-3.5063,-3.5092,-3.51,-3.5107,0,0,0,0,0,-3.4516,-3.4578,-3.4575,-3.4591,-3.4676,-3.474,-3.4751,-3.4763,-3.4741,-3.4772,-3.4793,-3.4785,-3.4907,-3.4877,-3.4892,-3.493,-3.5052,-3.5057,-3.5063,-3.5088,-3.5098,-3.5107,0,0,0,0,0,0,-3.4535,-3.4584,-3.4581,-3.4659,-3.4696,-3.4738,-3.4777,-3.4774,-3.4816,-3.4812,-3.4824,-3.4834,-3.4903,-3.4923,-3.4889,-3.5006,-3.4976,-3.4985,-3.499,-3.5,-3.5008,-3.5001,-3.4865,0,0,0,0,0,-3.4548,-3.4597,-3.4637,-3.4702,-3.4721,-3.4746,-3.4774,-3.478,-3.4818,-3.4833,-3.486,-3.4896,-3.4942,-3.4973,-3.5017,-3.5095,-3.5104,-3.5128,-3.5136,-3.5142,-3.5149,-3.5191,-3.5202,-3.5083,-3.5083,-3.5083,0,0,-3.4576,-3.4609,-3.4639,-3.4707,-3.4736,-3.4785,-3.4759,-3.4812,-3.4849,-3.4841,-3.4907,-3.4928,-3.4969,-3.5042,-3.5075,-3.5061,-3.5184,-3.5149,-3.5154,-3.5157,-3.5197,-3.5208,-3.5218,-3.5087,-3.5086,-3.5085,0,0,-3.4652,-3.4682,-3.474,-3.477,-3.4814,-3.483,-3.4844,-3.4888,-3.4901,-3.4968,-3.4963,-3.5006,-3.5086,-3.5115,-3.514,-3.5227,-3.522,-3.5241,-3.5281,-3.5321,-3.533,-3.5338,-3.5368,-3.5379,-3.5248,-3.5248,-3.5248,0,-3.468,-3.4756,-3.4769,-3.4823,-3.4853,-3.4849,-3.4907,-3.4935,-3.4991,-3.5011,-3.4994,-3.5094,-3.5122,-3.5201,-3.5222,-3.5243,-3.5258,-3.5235,-3.5328,-3.5336,-3.5344,-3.5373,-3.5384,-3.525,-3.525,-3.525,-3.525,0,-3.4788,-3.484,-3.4881,-3.4937,-3.4971,-3.5026,-3.5046,-3.5079,-3.5082,-3.51,-3.5167,-3.52,-3.5251,-3.527,-3.5273,-3.535,-3.5339,-3.5325,-3.5295,-3.5358,-3.5384,-3.5395,-3.5253,-3.5253,-3.5252,-3.5251,0,0,-3.4877,-3.494,-3.4955,-3.498,-3.5029,-3.5069,-3.5123,-3.5174,-3.5201,-3.5241,-3.5286,-3.5354,-3.5341,-3.537,-3.5376,-3.5412,-3.5476,-3.5393,-3.5394,-3.5406,-3.5561,-3.557,-3.5582,-3.5473,-3.5475,-3.5477,-3.5557,0,-3.4957,-3.5055,-3.5068,-3.5154,-3.5202,-3.52,-3.5247,-3.5282,-3.5299,-3.5341,-3.536,-3.5408,-3.5388,-3.5405,-3.544,-3.5461,-3.5507,-3.5456,-3.5513,-3.5515,-3.5502,-3.5597,-3.5607,-3.5681,-3.5568,-3.5569,-3.5571,0,-3.5063,-3.5106,-3.5197,-3.5239,-3.526,-3.5302,-3.5349,-3.539,-3.5429,-3.5439,-3.5471,-3.5473,-3.5528,-3.5496,-3.5571,-3.5536,-3.556,-3.5574,-3.5577,-3.5582,-3.5546,-3.5603,-3.5705,-3.5716,-3.5588,-3.5586,-3.5585,0,-3.5117,-3.5198,-3.5263,-3.5284,-3.5335,-3.5365,-3.5388,-3.5424,-3.5454,-3.5495,-3.5514,-3.556,-3.5585,-3.562,-3.5634,-3.561,-3.5708,-3.5678,-3.5717,-3.5717,-3.5737,-3.5735,-3.5843,-3.5754,-3.5754,-3.5754,-3.5754,0,-3.5204,-3.5259,-3.5288,-3.5328,-3.5389,-3.5404,-3.5464,-3.5485,-3.5518,-3.556,-3.5561,-3.56,-3.5617,-3.5659,-3.567,-3.573,-3.5742,-3.575,-3.5752,-3.575,-3.5748,-3.5765,-3.5759,-3.5757,-3.5756,-3.5756,-3.5755,0,-3.5275,-3.5296,-3.5367,-3.5409,-3.5421,-3.5465,-3.5501,-3.5538,-3.5556,-3.561,-3.5623,-3.565,-3.57,-3.5717,-3.5777,-3.5785,-3.5853,-3.5852,-3.5841,-3.5841,-3.5878,-3.5874,-3.6,-3.6016,-3.5918,-3.5919,-3.592,0,-3.5328,-3.5371,-3.5419,-3.5448,-3.5472,-3.5519,-3.5549,-3.5565,-3.5596,-3.5643,-3.5675,-3.5724,-3.5764,-3.5843,-3.5867,-3.5912,-3.5911,-3.5952,-3.5918,-3.5913,-3.591,-3.5907,-3.5911,-3.5958,-3.5959,-3.596,-3.596,0,-3.542,-3.5429,-3.5473,-3.5521,-3.5558,-3.5596,-3.5633,-3.5657,-3.5678,-3.5712,-3.5764,-3.5795,-3.5856,-3.5905,-3.5952,-3.5973,-3.597,-3.5971,-3.5982,-3.5979,-3.5971,-3.5975,-3.5857,-3.5968,-3.5967,-3.5967,-3.5966,-3.5966,-3.5483,-3.5521,-3.556,-3.5609,-3.5639,-3.5674,-3.5711,-3.5734,-3.5777,-3.5829,-3.5835,-3.589,-3.5926,-3.5989,-3.6012,-3.6054,-3.6043,-3.6059,-3.6063,-3.6067,-3.6069,-3.5965,-3.6063,-3.6063,-3.6063,-3.6062,-3.6062,0,-3.5574,-3.5599,-3.5645,-3.5697,-3.5735,-3.5731,-3.5771,-3.5803,-3.5852,-3.5887,-3.5927,-3.5985,-3.6032,-3.606,-3.6107,-3.6135,-3.6134,-3.6146,-3.6144,-3.6148,-3.6077,-3.6062,-3.6146,-3.6146,-3.6146,-3.6146,-3.6146,-3.6146,-3.5626,-3.5689,-3.5702,-3.5779,-3.5804,-3.5858,-3.5882,-3.5913,-3.5941,-3.6006,-3.6046,-3.6064,-3.6096,-3.6145,-3.6188,-3.6195,-3.6211,-3.6224,-3.623,-3.6162,-3.6153,-3.6145,-3.6131,-3.6228,-3.6228,-3.6297,-3.6298,-3.6298]}]]